Year,Month,Day,Hour,Minute,Value (Times are PST for temperature in C)
2017,01,10,00,00,4.60
2017,01,10,00,01,4.50
2017,01,10,00,02,4.60
2017,01,10,00,03,4.60
2017,01,10,00,04,4.60
2017,01,10,00,05,4.60
2017,01,10,00,06,4.60
2017,01,10,00,07,4.60
2017,01,10,00,08,4.60
2017,01,10,00,09,4.60
2017,01,10,00,10,4.60
2017,01,10,00,11,4.60
2017,01,10,00,12,4.60
2017,01,10,00,13,4.60
2017,01,10,00,14,4.60
2017,01,10,00,15,4.60
2017,01,10,00,16,4.60
2017,01,10,00,17,4.60
2017,01,10,00,18,4.60
2017,01,10,00,19,4.60
2017,01,10,00,20,4.60
2017,01,10,00,21,4.60
2017,01,10,00,22,4.60
2017,01,10,00,23,4.60
2017,01,10,00,24,4.60
2017,01,10,00,25,4.60
2017,01,10,00,26,4.60
2017,01,10,00,27,4.60
2017,01,10,00,28,4.60
2017,01,10,00,29,4.60
2017,01,10,00,30,4.60
2017,01,10,00,31,4.60
2017,01,10,00,32,4.70
2017,01,10,00,33,4.70
2017,01,10,00,34,4.70
2017,01,10,00,35,4.70
2017,01,10,00,36,4.70
2017,01,10,00,37,4.70
2017,01,10,00,38,4.60
2017,01,10,00,39,4.60
2017,01,10,00,40,4.60
2017,01,10,00,41,4.60
2017,01,10,00,42,4.60
2017,01,10,00,43,4.60
2017,01,10,00,44,4.60
2017,01,10,00,45,4.60
2017,01,10,00,46,4.60
2017,01,10,00,47,4.60
2017,01,10,00,48,4.60
2017,01,10,00,49,4.60
2017,01,10,00,50,4.60
2017,01,10,00,51,4.60
2017,01,10,00,52,4.50
2017,01,10,00,53,4.50
2017,01,10,00,54,4.50
2017,01,10,00,55,4.50
2017,01,10,00,56,4.50
2017,01,10,00,57,4.50
2017,01,10,00,58,4.50
2017,01,10,00,59,4.40
2017,01,10,01,00,4.40
2017,01,10,01,01,4.40
2017,01,10,01,02,4.40
2017,01,10,01,03,4.40
2017,01,10,01,04,4.40
2017,01,10,01,05,4.40
2017,01,10,01,06,4.40
2017,01,10,01,07,4.40
2017,01,10,01,08,4.40
2017,01,10,01,09,4.30
2017,01,10,01,10,4.30
2017,01,10,01,11,4.30
2017,01,10,01,12,4.30
2017,01,10,01,13,4.30
2017,01,10,01,14,4.30
2017,01,10,01,15,4.30
2017,01,10,01,16,4.30
2017,01,10,01,17,4.30
2017,01,10,01,18,4.30
2017,01,10,01,19,4.30
2017,01,10,01,20,4.30
2017,01,10,01,21,4.30
2017,01,10,01,22,4.30
2017,01,10,01,23,4.30
2017,01,10,01,24,4.30
2017,01,10,01,25,4.30
2017,01,10,01,26,4.30
2017,01,10,01,27,4.30
2017,01,10,01,28,4.30
2017,01,10,01,29,4.30
2017,01,10,01,30,4.30
2017,01,10,01,31,4.30
2017,01,10,01,32,4.30
2017,01,10,01,33,4.30
2017,01,10,01,34,4.30
2017,01,10,01,35,4.30
2017,01,10,01,36,4.30
2017,01,10,01,37,4.30
2017,01,10,01,38,4.30
2017,01,10,01,39,4.30
2017,01,10,01,40,4.30
2017,01,10,01,41,4.30
2017,01,10,01,42,4.40
2017,01,10,01,43,4.30
2017,01,10,01,44,4.30
2017,01,10,01,45,4.30
2017,01,10,01,46,4.30
2017,01,10,01,47,4.30
2017,01,10,01,48,4.30
2017,01,10,01,49,4.30
2017,01,10,01,50,4.30
2017,01,10,01,51,4.30
2017,01,10,01,52,4.30
2017,01,10,01,53,4.30
2017,01,10,01,54,4.30
2017,01,10,01,55,4.30
2017,01,10,01,56,4.30
2017,01,10,01,57,4.30
2017,01,10,01,58,4.30
2017,01,10,01,59,4.20
2017,01,10,02,00,4.20
2017,01,10,02,01,4.20
2017,01,10,02,02,4.20
2017,01,10,02,03,4.20
2017,01,10,02,04,4.20
2017,01,10,02,05,4.20
2017,01,10,02,06,4.20
2017,01,10,02,07,4.20
2017,01,10,02,08,4.10
2017,01,10,02,09,4.10
2017,01,10,02,10,4.10
2017,01,10,02,11,4.10
2017,01,10,02,12,4.00
2017,01,10,02,13,4.00
2017,01,10,02,14,4.00
2017,01,10,02,15,4.00
2017,01,10,02,16,3.90
2017,01,10,02,17,3.90
2017,01,10,02,18,3.90
2017,01,10,02,19,3.90
2017,01,10,02,20,3.90
2017,01,10,02,21,3.90
2017,01,10,02,22,3.90
2017,01,10,02,23,3.90
2017,01,10,02,24,3.90
2017,01,10,02,25,3.90
2017,01,10,02,26,3.90
2017,01,10,02,27,3.80
2017,01,10,02,28,3.80
2017,01,10,02,29,3.80
2017,01,10,02,30,3.80
2017,01,10,02,31,3.80
2017,01,10,02,32,3.80
2017,01,10,02,33,3.80
2017,01,10,02,34,3.80
2017,01,10,02,35,3.80
2017,01,10,02,36,3.80
2017,01,10,02,37,3.80
2017,01,10,02,38,3.80
2017,01,10,02,39,3.80
2017,01,10,02,40,3.80
2017,01,10,02,41,3.70
2017,01,10,02,42,3.70
2017,01,10,02,43,3.70
2017,01,10,02,44,3.70
2017,01,10,02,45,3.70
2017,01,10,02,46,3.70
2017,01,10,02,47,3.70
2017,01,10,02,48,3.70
2017,01,10,02,49,3.70
2017,01,10,02,50,3.70
2017,01,10,02,51,3.70
2017,01,10,02,52,3.70
2017,01,10,02,53,3.60
2017,01,10,02,54,3.60
2017,01,10,02,55,3.60
2017,01,10,02,56,3.60
2017,01,10,02,57,3.60
2017,01,10,02,58,3.60
2017,01,10,02,59,3.60
2017,01,10,03,00,3.60
2017,01,10,03,01,3.60
2017,01,10,03,02,3.50
2017,01,10,03,03,3.60
2017,01,10,03,04,3.50
2017,01,10,03,05,3.50
2017,01,10,03,06,3.50
2017,01,10,03,07,3.50
2017,01,10,03,08,3.40
2017,01,10,03,09,3.40
2017,01,10,03,10,3.40
2017,01,10,03,11,3.40
2017,01,10,03,12,3.40
2017,01,10,03,13,3.40
2017,01,10,03,14,3.30
2017,01,10,03,15,3.30
2017,01,10,03,16,3.30
2017,01,10,03,17,3.30
2017,01,10,03,18,3.30
2017,01,10,03,19,3.30
2017,01,10,03,20,3.20
2017,01,10,03,21,3.20
2017,01,10,03,22,3.20
2017,01,10,03,23,3.20
2017,01,10,03,24,3.20
2017,01,10,03,25,3.20
2017,01,10,03,26,3.20
2017,01,10,03,27,3.10
2017,01,10,03,28,3.10
2017,01,10,03,29,3.10
2017,01,10,03,30,3.10
2017,01,10,03,31,3.10
2017,01,10,03,32,3.10
2017,01,10,03,33,3.00
2017,01,10,03,34,3.00
2017,01,10,03,35,3.00
2017,01,10,03,36,3.00
2017,01,10,03,37,2.90
2017,01,10,03,38,2.90
2017,01,10,03,39,2.90
2017,01,10,03,40,2.90
2017,01,10,03,41,2.90
2017,01,10,03,42,2.90
2017,01,10,03,43,2.90
2017,01,10,03,44,2.80
2017,01,10,03,45,2.80
2017,01,10,03,46,2.80
2017,01,10,03,47,2.80
2017,01,10,03,48,2.80
2017,01,10,03,49,2.80
2017,01,10,03,50,2.80
2017,01,10,03,51,2.80
2017,01,10,03,52,2.70
2017,01,10,03,53,2.70
2017,01,10,03,54,2.70
2017,01,10,03,55,2.70
2017,01,10,03,56,2.70
2017,01,10,03,57,2.70
2017,01,10,03,58,2.70
2017,01,10,03,59,2.70
2017,01,10,04,00,2.70
2017,01,10,04,01,2.70
2017,01,10,04,02,2.70
2017,01,10,04,03,2.70
2017,01,10,05,04,2.10
2017,01,10,05,05,2.10
2017,01,10,05,06,2.10
2017,01,10,05,07,2.10
2017,01,10,05,08,2.10
2017,01,10,05,09,2.10
2017,01,10,05,10,2.10
2017,01,10,05,11,2.10
2017,01,10,05,12,2.10
2017,01,10,05,13,2.10
2017,01,10,05,14,2.10
2017,01,10,05,15,2.10
2017,01,10,09,13,0.40
2017,01,10,09,14,0.40
2017,01,10,09,15,0.40
2017,01,10,09,16,0.50
2017,01,10,09,17,0.40
2017,01,10,09,18,0.50
2017,01,10,09,19,0.50
2017,01,10,09,20,0.50
2017,01,10,09,21,0.50
2017,01,10,09,22,0.50
2017,01,10,09,23,0.50
2017,01,10,09,24,0.50
2017,01,10,09,25,0.50
2017,01,10,09,26,0.50
2017,01,10,09,27,0.50
2017,01,10,09,28,0.50
2017,01,10,09,29,0.50
2017,01,10,09,30,0.50
2017,01,10,09,31,0.60
2017,01,10,09,32,0.60
2017,01,10,09,33,0.60
2017,01,10,09,34,0.60
2017,01,10,09,35,0.60
2017,01,10,09,36,0.70
2017,01,10,09,37,0.70
2017,01,10,09,38,0.70
2017,01,10,09,39,0.70
2017,01,10,09,40,0.70
2017,01,10,09,41,0.70
2017,01,10,09,42,0.80
2017,01,10,09,43,0.80
2017,01,10,09,44,0.80
2017,01,10,09,45,0.80
2017,01,10,09,46,0.90
2017,01,10,09,47,0.90
2017,01,10,09,48,0.90
2017,01,10,09,49,1.00
2017,01,10,09,50,1.00
2017,01,10,09,51,1.00
2017,01,10,09,52,1.00
2017,01,10,09,53,1.00
2017,01,10,09,54,1.00
2017,01,10,09,55,1.10
2017,01,10,09,56,1.10
2017,01,10,09,57,1.10
2017,01,10,09,58,1.10
2017,01,10,09,59,1.10
2017,01,10,10,00,1.10
2017,01,10,10,01,1.10
2017,01,10,10,02,1.20
2017,01,10,10,03,1.20
2017,01,10,10,04,1.20
2017,01,10,10,05,1.20
2017,01,10,10,06,1.20
2017,01,10,10,07,1.20
2017,01,10,10,08,1.20
2017,01,10,10,09,1.20
2017,01,10,10,10,1.20
2017,01,10,10,11,1.20
2017,01,10,10,12,1.20
2017,01,10,10,13,1.20
2017,01,10,10,14,1.20
2017,01,10,10,15,1.20
2017,01,10,10,16,1.30
2017,01,10,10,17,1.30
2017,01,10,10,18,1.30
2017,01,10,10,19,1.40
2017,01,10,10,20,1.40
2017,01,10,10,21,1.40
2017,01,10,10,22,1.40
2017,01,10,10,23,1.40
2017,01,10,10,24,1.50
2017,01,10,10,25,1.50
2017,01,10,10,26,1.50
2017,01,10,10,27,1.60
2017,01,10,10,28,1.60
2017,01,10,10,29,1.60
2017,01,10,10,30,1.60
2017,01,10,10,31,1.60
2017,01,10,10,32,1.50
2017,01,10,10,33,1.50
2017,01,10,10,34,1.50
2017,01,10,10,35,1.40
2017,01,10,10,36,1.40
2017,01,10,10,37,1.40
2017,01,10,10,38,1.40
2017,01,10,10,39,1.30
2017,01,10,10,40,1.30
2017,01,10,10,41,1.30
2017,01,10,10,42,1.30
2017,01,10,10,43,1.30
2017,01,10,10,44,1.30
2017,01,10,10,45,1.30
2017,01,10,10,46,1.30
2017,01,10,10,47,1.30
2017,01,10,10,48,1.30
2017,01,10,10,49,1.30
2017,01,10,10,50,1.20
2017,01,10,10,51,1.20
2017,01,10,10,52,1.20
2017,01,10,10,53,1.20
2017,01,10,10,54,1.10
2017,01,10,10,55,1.10
2017,01,10,10,56,1.00
2017,01,10,10,57,1.00
2017,01,10,10,58,1.00
2017,01,10,10,59,0.90
2017,01,10,11,00,0.90
2017,01,10,11,01,0.90
2017,01,10,11,02,0.90
2017,01,10,11,03,0.90
2017,01,10,11,04,0.90
2017,01,10,11,05,0.90
2017,01,10,11,06,0.90
2017,01,10,11,07,0.90
2017,01,10,11,08,0.90
2017,01,10,11,09,0.90
2017,01,10,11,10,0.90
2017,01,10,11,11,1.00
2017,01,10,11,12,1.00
2017,01,10,11,13,1.00
2017,01,10,11,14,1.10
2017,01,10,11,15,1.10
2017,01,10,11,16,1.10
2017,01,10,11,17,1.10
2017,01,10,11,18,1.10
2017,01,10,11,19,1.10
2017,01,10,11,20,1.10
2017,01,10,11,21,1.10
2017,01,10,11,22,1.10
2017,01,10,11,23,1.10
2017,01,10,11,24,1.10
2017,01,10,11,25,1.10
2017,01,10,11,26,1.10
2017,01,10,11,27,1.10
2017,01,10,11,28,1.10
2017,01,10,11,29,1.10
2017,01,10,11,30,1.10
2017,01,10,11,31,1.10
2017,01,10,11,32,1.10
2017,01,10,11,33,1.10
2017,01,10,11,34,1.10
2017,01,10,11,35,1.10
2017,01,10,11,36,1.10
2017,01,10,11,37,1.10
2017,01,10,11,38,1.10
2017,01,10,11,39,1.10
2017,01,10,11,40,1.10
2017,01,10,11,41,1.10
2017,01,10,11,42,1.20
2017,01,10,11,43,1.20
2017,01,10,11,44,1.20
2017,01,10,11,45,1.30
2017,01,10,11,46,1.40
2017,01,10,11,47,1.40
2017,01,10,11,48,1.50
2017,01,10,11,49,1.60
2017,01,10,11,50,1.70
2017,01,10,11,51,1.80
2017,01,10,11,52,1.80
2017,01,10,11,53,1.90
2017,01,10,11,54,1.90
2017,01,10,11,55,1.90
2017,01,10,11,56,1.90
2017,01,10,11,57,2.00
2017,01,10,11,58,2.00
2017,01,10,11,59,2.10
2017,01,10,12,00,2.10
2017,01,10,12,01,2.10
2017,01,10,12,02,2.10
2017,01,10,12,03,2.20
2017,01,10,12,04,2.20
2017,01,10,12,05,2.20
2017,01,10,12,06,2.30
2017,01,10,12,07,2.30
2017,01,10,12,08,2.30
2017,01,10,12,09,2.30
2017,01,10,12,10,2.30
2017,01,10,12,11,2.30
2017,01,10,12,12,2.40
2017,01,10,12,13,2.40
2017,01,10,12,14,2.40
2017,01,10,12,15,2.50
2017,01,10,12,16,2.50
2017,01,10,12,17,2.50
2017,01,10,12,18,2.50
2017,01,10,12,19,2.50
2017,01,10,12,20,2.50
2017,01,10,12,21,2.60
2017,01,10,12,22,2.60
2017,01,10,12,23,2.50
2017,01,10,12,24,2.60
2017,01,10,12,25,2.60
2017,01,10,12,26,2.60
2017,01,10,12,27,2.60
2017,01,10,12,28,2.60
2017,01,10,12,29,2.60
2017,01,10,12,30,2.60
2017,01,10,12,31,2.60
2017,01,10,12,32,2.60
2017,01,10,12,33,2.60
2017,01,10,12,34,2.60
2017,01,10,12,35,2.60
2017,01,10,12,36,2.60
2017,01,10,12,37,2.60
2017,01,10,12,38,2.60
2017,01,10,12,39,2.60
2017,01,10,12,40,2.70
2017,01,10,12,41,2.70
2017,01,10,12,42,2.70
2017,01,10,12,43,2.80
2017,01,10,12,44,2.80
2017,01,10,12,45,2.80
2017,01,10,12,46,2.80
2017,01,10,12,47,2.80
2017,01,10,12,48,2.80
2017,01,10,12,49,2.80
2017,01,10,12,50,2.80
2017,01,10,12,51,2.80
2017,01,10,12,52,2.80
2017,01,10,12,53,2.80
2017,01,10,12,54,2.70
2017,01,10,12,55,2.70
2017,01,10,12,56,2.70
2017,01,10,12,57,2.70
2017,01,10,12,58,2.70
2017,01,10,12,59,2.70
2017,01,10,13,00,2.70
2017,01,10,13,01,2.70
2017,01,10,13,02,2.60
2017,01,10,13,03,2.70
2017,01,10,13,04,2.70
2017,01,10,13,05,2.70
2017,01,10,13,06,2.70
2017,01,10,13,07,2.70
2017,01,10,13,08,2.70
2017,01,10,13,09,2.70
2017,01,10,13,10,2.70
2017,01,10,13,11,2.70
2017,01,10,13,12,2.70
2017,01,10,13,13,2.60
2017,01,10,13,14,2.60
2017,01,10,13,15,2.50
2017,01,10,13,16,2.40
2017,01,10,13,17,2.40
2017,01,10,13,18,2.40
2017,01,10,13,19,2.30
2017,01,10,13,20,2.30
2017,01,10,13,21,2.30
2017,01,10,13,22,2.30
2017,01,10,13,23,2.30
2017,01,10,13,24,2.40
2017,01,10,13,25,2.40
2017,01,10,13,26,2.40
2017,01,10,13,27,2.40
2017,01,10,13,28,2.40
2017,01,10,13,29,2.40
2017,01,10,13,30,2.40
2017,01,10,13,31,2.40
2017,01,10,13,32,2.40
2017,01,10,13,33,2.40
2017,01,10,13,34,2.40
2017,01,10,13,35,2.40
2017,01,10,13,36,2.40
2017,01,10,13,37,2.40
2017,01,10,13,38,2.40
2017,01,10,13,39,2.40
2017,01,10,13,40,2.40
2017,01,10,13,41,2.40
2017,01,10,13,42,2.40
2017,01,10,13,43,2.40
2017,01,10,13,44,2.40
2017,01,10,13,45,2.40
2017,01,10,13,46,2.40
2017,01,10,13,47,2.50
2017,01,10,13,48,2.50
2017,01,10,13,49,2.40
2017,01,10,13,50,2.40
2017,01,10,13,51,2.40
2017,01,10,13,52,2.40
2017,01,10,13,53,2.40
2017,01,10,13,54,2.40
2017,01,10,13,55,2.40
2017,01,10,13,56,2.40
2017,01,10,13,57,2.40
2017,01,10,13,58,2.40
2017,01,10,13,59,2.30
2017,01,10,14,00,2.30
2017,01,10,14,01,2.30
2017,01,10,14,02,2.30
2017,01,10,14,03,2.30
2017,01,10,14,04,2.30
2017,01,10,14,05,2.30
2017,01,10,14,06,2.20
2017,01,10,14,07,2.20
2017,01,10,14,08,2.20
2017,01,10,14,09,2.20
2017,01,10,14,10,2.10
2017,01,10,14,11,2.10
2017,01,10,14,12,2.10
2017,01,10,14,13,2.10
2017,01,10,14,14,2.10
2017,01,10,14,15,2.00
2017,01,10,14,16,2.00
2017,01,10,14,17,2.00
2017,01,10,14,18,2.00
2017,01,10,14,19,2.00
2017,01,10,14,20,2.00
2017,01,10,14,21,2.00
2017,01,10,14,22,2.00
2017,01,10,14,23,2.00
2017,01,10,14,24,2.00
2017,01,10,14,25,2.00
2017,01,10,14,26,2.00
2017,01,10,14,27,2.00
2017,01,10,14,28,2.00
2017,01,10,14,29,2.00
2017,01,10,14,30,1.90
2017,01,10,14,31,1.90
2017,01,10,14,32,1.90
2017,01,10,14,33,1.90
2017,01,10,14,34,1.90
2017,01,10,14,35,1.90
2017,01,10,14,36,1.90
2017,01,10,14,37,1.90
2017,01,10,14,38,1.90
2017,01,10,14,39,1.90
2017,01,10,14,40,1.80
2017,01,10,14,41,1.80
2017,01,10,14,42,1.80
2017,01,10,14,43,1.80
2017,01,10,14,44,1.80
2017,01,10,14,45,1.80
2017,01,10,14,46,1.80
2017,01,10,14,47,1.80
2017,01,10,14,48,1.80
2017,01,10,14,49,1.80
2017,01,10,14,50,1.80
2017,01,10,14,51,1.80
2017,01,10,14,52,1.80
2017,01,10,14,53,1.80
2017,01,10,14,54,1.80
2017,01,10,14,55,1.80
2017,01,10,14,56,1.80
2017,01,10,14,57,1.80
2017,01,10,14,58,1.80
2017,01,10,14,59,1.80
2017,01,10,15,00,1.80
2017,01,10,15,01,1.80
2017,01,10,15,02,1.80
2017,01,10,15,03,1.80
2017,01,10,15,04,1.80
2017,01,10,15,05,1.80
2017,01,10,15,06,1.80
2017,01,10,15,07,1.80
2017,01,10,15,08,1.80
2017,01,10,15,09,1.80
2017,01,10,15,10,1.80
2017,01,10,15,11,1.80
2017,01,10,15,12,1.70
2017,01,10,15,13,1.70
2017,01,10,15,14,1.70
2017,01,10,15,15,1.70
2017,01,10,15,16,1.70
2017,01,10,15,17,1.60
2017,01,10,15,18,1.60
2017,01,10,15,19,1.60
2017,01,10,15,20,1.60
2017,01,10,15,21,1.60
2017,01,10,15,22,1.60
2017,01,10,15,23,1.60
2017,01,10,15,24,1.60
2017,01,10,15,25,1.70
2017,01,10,15,26,1.70
2017,01,10,15,27,1.70
2017,01,10,15,28,1.70
2017,01,10,15,29,1.60
2017,01,10,15,30,1.60
2017,01,10,15,31,1.60
2017,01,10,15,32,1.60
2017,01,10,15,33,1.60
2017,01,10,15,34,1.60
2017,01,10,15,35,1.60
2017,01,10,15,36,1.60
2017,01,10,15,37,1.60
2017,01,10,15,38,1.60
2017,01,10,15,39,1.60
2017,01,10,15,40,1.60
2017,01,10,15,41,1.50
2017,01,10,15,42,1.50
2017,01,10,15,43,1.60
2017,01,10,15,44,1.60
2017,01,10,15,45,1.60
2017,01,10,15,46,1.60
2017,01,10,15,47,1.50
2017,01,10,15,48,1.50
2017,01,10,15,49,1.50
2017,01,10,15,50,1.50
2017,01,10,15,51,1.40
2017,01,10,15,52,1.40
2017,01,10,15,53,1.50
2017,01,10,15,54,1.50
2017,01,10,15,55,1.50
2017,01,10,15,56,1.50
2017,01,10,15,57,1.50
2017,01,10,15,58,1.60
2017,01,10,15,59,1.60
2017,01,10,16,00,1.60
2017,01,10,16,01,1.60
2017,01,10,16,02,1.50
2017,01,10,16,03,1.40
2017,01,10,16,04,1.40
2017,01,10,16,05,1.40
2017,01,10,16,06,1.30
2017,01,10,16,07,1.30
2017,01,10,16,08,1.30
2017,01,10,16,09,1.30
2017,01,10,16,10,1.30
2017,01,10,16,11,1.20
2017,01,10,16,12,1.20
2017,01,10,16,13,1.20
2017,01,10,16,14,1.20
2017,01,10,16,15,1.20
2017,01,10,16,16,1.20
2017,01,10,16,17,1.10
2017,01,10,16,18,1.10
2017,01,10,16,19,1.10
2017,01,10,16,20,1.10
2017,01,10,16,21,1.10
2017,01,10,16,22,1.10
2017,01,10,16,23,1.00
2017,01,10,16,24,1.00
2017,01,10,16,25,1.00
2017,01,10,16,26,1.00
2017,01,10,16,27,1.00
2017,01,10,16,28,1.00
2017,01,10,16,29,0.90
2017,01,10,16,30,0.90
2017,01,10,16,31,0.90
2017,01,10,16,32,0.90
2017,01,10,16,33,0.90
2017,01,10,16,34,0.80
2017,01,10,16,35,0.80
2017,01,10,16,36,0.80
2017,01,10,16,37,0.80
2017,01,10,16,38,0.80
2017,01,10,16,39,0.80
2017,01,10,16,40,0.70
2017,01,10,16,41,0.70
2017,01,10,16,42,0.70
2017,01,10,16,43,0.70
2017,01,10,16,44,0.70
2017,01,10,16,45,0.70
2017,01,10,16,46,0.60
2017,01,10,16,47,0.60
2017,01,10,16,48,0.60
2017,01,10,16,49,0.60
2017,01,10,16,50,0.60
2017,01,10,16,51,0.60
2017,01,10,16,52,0.60
2017,01,10,16,53,0.60
2017,01,10,16,54,0.50
2017,01,10,16,55,0.50
2017,01,10,16,56,0.50
2017,01,10,16,57,0.50
2017,01,10,16,58,0.50
2017,01,10,16,59,0.40
2017,01,10,17,00,0.40
2017,01,10,17,01,0.40
2017,01,10,17,02,0.40
2017,01,10,17,03,0.40
2017,01,10,17,04,0.40
2017,01,10,17,05,0.40
2017,01,10,17,06,0.40
2017,01,10,17,07,0.40
2017,01,10,17,08,0.40
2017,01,10,17,09,0.40
2017,01,10,17,10,0.30
2017,01,10,17,11,0.40
2017,01,10,17,12,0.40
2017,01,10,17,13,0.40
2017,01,10,17,14,0.40
2017,01,10,17,15,0.40
2017,01,10,17,16,0.40
2017,01,10,17,17,0.40
2017,01,10,17,18,0.40
2017,01,10,17,19,0.40
2017,01,10,17,20,0.40
2017,01,10,17,21,0.30
2017,01,10,17,22,0.30
2017,01,10,17,23,0.30
2017,01,10,17,24,0.30
2017,01,10,17,25,0.30
2017,01,10,17,26,0.30
2017,01,10,17,27,0.30
2017,01,10,17,28,0.30
2017,01,10,17,29,0.30
2017,01,10,17,30,0.30
2017,01,10,17,31,0.30
2017,01,10,17,32,0.30
2017,01,10,17,33,0.30
2017,01,10,17,34,0.20
2017,01,10,17,35,0.20
2017,01,10,17,36,0.20
2017,01,10,17,37,0.20
2017,01,10,17,38,0.20
2017,01,10,17,39,0.20
2017,01,10,17,40,0.20
2017,01,10,17,41,0.20
2017,01,10,17,42,0.20
2017,01,10,17,43,0.20
2017,01,10,17,44,0.20
2017,01,10,17,45,0.20
2017,01,10,17,46,0.20
2017,01,10,17,47,0.20
2017,01,10,17,48,0.20
2017,01,10,17,49,0.20
2017,01,10,17,50,0.20
2017,01,10,17,51,0.20
2017,01,10,17,52,0.20
2017,01,10,17,53,0.20
2017,01,10,17,54,0.20
2017,01,10,17,55,0.20
2017,01,10,17,56,0.20
2017,01,10,17,57,0.10
2017,01,10,17,58,0.10
2017,01,10,17,59,0.10
2017,01,10,18,00,0.10
2017,01,10,18,01,0.10
2017,01,10,18,02,0.10
2017,01,10,18,03,0.10
2017,01,10,18,04,0.00
2017,01,10,18,05,0.00
2017,01,10,18,06,0.00
2017,01,10,18,07,0.00
2017,01,10,18,08,-0.10
2017,01,10,18,09,-0.10
2017,01,10,18,10,-0.10
2017,01,10,18,11,-0.10
2017,01,10,18,12,-0.10
2017,01,10,18,13,-0.10
2017,01,10,18,14,-0.10
2017,01,10,18,15,-0.10
2017,01,10,18,16,-0.10
2017,01,10,18,17,-0.10
2017,01,10,18,18,-0.10
2017,01,10,18,19,-0.10
2017,01,10,18,20,-0.10
2017,01,10,18,21,-0.10
2017,01,10,18,22,-0.20
2017,01,10,18,23,-0.20
2017,01,10,18,24,-0.20
2017,01,10,18,25,-0.20
2017,01,10,18,26,-0.20
2017,01,10,18,27,-0.20
2017,01,10,18,28,-0.20
2017,01,10,18,29,-0.30
2017,01,10,18,30,-0.30
2017,01,10,18,31,-0.30
2017,01,10,18,32,-0.30
2017,01,10,18,33,-0.30
2017,01,10,18,34,-0.40
2017,01,10,18,35,-0.40
2017,01,10,18,36,-0.40
2017,01,10,18,37,-0.40
2017,01,10,18,38,-0.40
2017,01,10,18,39,-0.40
2017,01,10,18,40,-0.40
2017,01,10,18,41,-0.40
2017,01,10,18,42,-0.50
2017,01,10,18,43,-0.50
2017,01,10,18,44,-0.50
2017,01,10,18,45,-0.50
2017,01,10,18,46,-0.50
2017,01,10,18,47,-0.50
2017,01,10,18,48,-0.50
2017,01,10,18,49,-0.50
2017,01,10,18,50,-0.60
2017,01,10,18,51,-0.60
2017,01,10,18,52,-0.60
2017,01,10,18,53,-0.60
2017,01,10,18,54,-0.60
2017,01,10,18,55,-0.60
2017,01,10,18,56,-0.60
2017,01,10,18,57,-0.60
2017,01,10,18,58,-0.60
2017,01,10,18,59,-0.60
2017,01,10,19,00,-0.70
2017,01,10,19,01,-0.70
2017,01,10,19,02,-0.70
2017,01,10,19,03,-0.70
2017,01,10,19,04,-0.70
2017,01,10,19,05,-0.70
2017,01,10,19,06,-0.70
2017,01,10,19,07,-0.70
2017,01,10,19,08,-0.70
2017,01,10,19,09,-0.70
2017,01,10,19,10,-0.70
2017,01,10,19,11,-0.70
2017,01,10,19,12,-0.70
2017,01,10,19,13,-0.70
2017,01,10,19,14,-0.70
2017,01,10,19,15,-0.80
2017,01,10,19,16,-0.80
2017,01,10,19,17,-0.80
2017,01,10,19,18,-0.80
2017,01,10,19,19,-0.80
2017,01,10,19,20,-0.80
2017,01,10,19,21,-0.80
2017,01,10,19,22,-0.80
2017,01,10,19,23,-0.80
2017,01,10,19,24,-0.80
2017,01,10,19,25,-0.80
2017,01,10,19,26,-0.80
2017,01,10,19,27,-0.80
2017,01,10,19,28,-0.80
2017,01,10,19,29,-0.80
2017,01,10,19,30,-0.80
2017,01,10,19,31,-0.80
2017,01,10,19,32,-0.80
2017,01,10,19,33,-0.80
2017,01,10,19,34,-0.80
2017,01,10,19,35,-0.80
2017,01,10,19,36,-0.80
2017,01,10,19,37,-0.80
2017,01,10,19,38,-0.80
2017,01,10,19,39,-0.90
2017,01,10,19,40,-0.90
2017,01,10,19,41,-0.90
2017,01,10,19,42,-0.90
2017,01,10,19,43,-0.90
2017,01,10,19,44,-0.90
2017,01,10,19,45,-0.90
2017,01,10,19,46,-0.90
2017,01,10,19,47,-0.90
2017,01,10,19,48,-0.90
2017,01,10,19,49,-0.90
2017,01,10,19,50,-0.90
2017,01,10,19,51,-0.90
2017,01,10,19,52,-0.90
2017,01,10,19,53,-0.90
2017,01,10,19,54,-0.90
2017,01,10,19,55,-1.00
2017,01,10,19,56,-1.00
2017,01,10,19,57,-1.00
2017,01,10,19,58,-1.00
2017,01,10,19,59,-1.00
2017,01,10,20,00,-1.00
2017,01,10,20,01,-1.00
2017,01,10,20,02,-1.00
2017,01,10,20,03,-1.00
2017,01,10,20,04,-1.00
2017,01,10,20,05,-1.00
2017,01,10,20,06,-1.00
2017,01,10,20,07,-1.00
2017,01,10,20,08,-1.00
2017,01,10,20,09,-1.00
2017,01,10,20,10,-1.00
2017,01,10,20,11,-1.00
2017,01,10,20,12,-1.00
2017,01,10,20,13,-1.00
2017,01,10,20,14,-1.00
2017,01,10,20,15,-1.00
2017,01,10,20,16,-1.00
2017,01,10,20,17,-1.00
2017,01,10,20,18,-1.00
2017,01,10,20,19,-1.00
2017,01,10,20,20,-1.00
2017,01,10,20,21,-1.00
2017,01,10,20,22,-1.00
2017,01,10,20,23,-1.00
2017,01,10,20,24,-1.10
2017,01,10,20,25,-1.10
2017,01,10,20,26,-1.10
2017,01,10,20,27,-1.10
2017,01,10,20,28,-1.10
2017,01,10,20,29,-1.10
2017,01,10,20,30,-1.10
2017,01,10,20,31,-1.10
2017,01,10,20,32,-1.20
2017,01,10,20,33,-1.20
2017,01,10,20,34,-1.20
2017,01,10,20,35,-1.20
2017,01,10,20,36,-1.20
2017,01,10,20,37,-1.20
2017,01,10,20,38,-1.20
2017,01,10,20,39,-1.20
2017,01,10,20,40,-1.20
2017,01,10,20,41,-1.20
2017,01,10,20,42,-1.20
2017,01,10,20,43,-1.20
2017,01,10,20,44,-1.20
2017,01,10,20,45,-1.30
2017,01,10,20,46,-1.30
2017,01,10,20,47,-1.30
2017,01,10,20,48,-1.20
2017,01,10,20,49,-1.20
2017,01,10,20,50,-1.20
2017,01,10,20,51,-1.20
2017,01,10,20,52,-1.20
2017,01,10,20,53,-1.20
2017,01,10,20,54,-1.20
2017,01,10,20,55,-1.20
2017,01,10,20,56,-1.20
2017,01,10,20,57,-1.20
2017,01,10,20,58,-1.20
2017,01,10,20,59,-1.20
2017,01,10,21,00,-1.20
2017,01,10,21,01,-1.20
2017,01,10,21,02,-1.20
2017,01,10,21,03,-1.20
2017,01,10,21,04,-1.20
2017,01,10,21,05,-1.20
2017,01,10,21,06,-1.20
2017,01,10,21,07,-1.20
2017,01,10,21,08,-1.20
2017,01,10,21,09,-1.20
2017,01,10,21,10,-1.20
2017,01,10,21,11,-1.20
2017,01,10,21,12,-1.30
2017,01,10,21,13,-1.30
2017,01,10,21,14,-1.30
2017,01,10,21,15,-1.30
2017,01,10,21,16,-1.30
2017,01,10,21,17,-1.30
2017,01,10,21,18,-1.30
2017,01,10,21,19,-1.30
2017,01,10,21,20,-1.30
2017,01,10,21,21,-1.30
2017,01,10,21,22,-1.30
2017,01,10,21,23,-1.30
2017,01,10,21,24,-1.30
2017,01,10,21,25,-1.30
2017,01,10,21,26,-1.30
2017,01,10,21,27,-1.30
2017,01,10,21,28,-1.40
2017,01,10,21,29,-1.40
2017,01,10,21,30,-1.40
2017,01,10,21,31,-1.40
2017,01,10,21,32,-1.40
2017,01,10,21,33,-1.40
2017,01,10,21,34,-1.40
2017,01,10,21,35,-1.40
2017,01,10,21,36,-1.40
2017,01,10,21,37,-1.40
2017,01,10,21,38,-1.40
2017,01,10,21,39,-1.40
2017,01,10,21,40,-1.40
2017,01,10,21,41,-1.40
2017,01,10,21,42,-1.40
2017,01,10,21,43,-1.40
2017,01,10,21,44,-1.40
2017,01,10,21,45,-1.40
2017,01,10,21,46,-1.40
2017,01,10,21,47,-1.40
2017,01,10,21,48,-1.40
2017,01,10,21,49,-1.40
2017,01,10,21,50,-1.40
2017,01,10,21,51,-1.40
2017,01,10,21,52,-1.40
2017,01,10,21,53,-1.40
2017,01,10,21,54,-1.40
2017,01,10,21,55,-1.40
2017,01,10,21,56,-1.40
2017,01,10,21,57,-1.40
2017,01,10,21,58,-1.40
2017,01,10,21,59,-1.40
2017,01,10,22,00,-1.40
2017,01,10,22,01,-1.40
2017,01,10,22,02,-1.40
2017,01,10,22,03,-1.40
2017,01,10,22,04,-1.40
2017,01,10,22,05,-1.40
2017,01,10,22,06,-1.40
2017,01,10,22,07,-1.40
2017,01,10,22,08,-1.40
2017,01,10,22,09,-1.40
2017,01,10,22,10,-1.40
2017,01,10,22,11,-1.40
2017,01,10,22,12,-1.40
2017,01,10,22,13,-1.40
2017,01,10,22,14,-1.40
2017,01,10,22,15,-1.40
2017,01,10,22,16,-1.40
2017,01,10,22,17,-1.40
2017,01,10,22,18,-1.40
2017,01,10,22,19,-1.40
2017,01,10,22,20,-1.40
2017,01,10,22,21,-1.40
2017,01,10,22,22,-1.40
2017,01,10,22,23,-1.50
2017,01,10,22,24,-1.50
2017,01,10,22,25,-1.50
2017,01,10,22,26,-1.50
2017,01,10,22,27,-1.50
2017,01,10,22,28,-1.50
2017,01,10,22,29,-1.50
2017,01,10,22,30,-1.50
2017,01,10,22,31,-1.50
2017,01,10,22,32,-1.50
2017,01,10,22,33,-1.50
2017,01,10,22,34,-1.50
2017,01,10,22,35,-1.50
2017,01,10,22,36,-1.60
2017,01,10,22,37,-1.60
2017,01,10,22,38,-1.60
2017,01,10,22,39,-1.60
2017,01,10,22,40,-1.60
2017,01,10,22,41,-1.60
2017,01,10,22,42,-1.60
2017,01,10,22,43,-1.60
2017,01,10,22,44,-1.60
2017,01,10,22,45,-1.60
2017,01,10,22,46,-1.50
2017,01,10,22,47,-1.60
2017,01,10,22,48,-1.60
2017,01,10,22,49,-1.50
2017,01,10,22,50,-1.50